AirNav   Everest Fuels
 
 1087 users online  

20A Robbins Field Airport
Oneonta, Alabama, USA

GOING TO ONEONTA?


FAA INFORMATION EFFECTIVE 18 JUNE 2020

Location

FAA Identifier: 20A
Lat/Long: 33-58-16.6000N 086-22-49.4000W
33-58.276667N 086-22.823333W
33.9712778,-86.3803889
(estimated)
Elevation: 1124.9 ft. / 342.9 m (surveyed)
Variation: 03W (2010)
From city: 5 miles NE of ONEONTA, AL
Time zone: UTC -5 (UTC -6 during Standard Time)
Zip code: 35952

Airport Operations

Airport use: Open to the public
Control tower: no
ARTCC: ATLANTA CENTER
FSS: ANNISTON FLIGHT SERVICE STATION
NOTAMs facility: ANB (NOTAM-D service available)
Attendance: UNATNDD
Wind indicator: lighted
Segmented circle: yes
Lights: ACTVT PAPI RWY 6 & MIRL RWY 06/24 - CTAF.
Beacon: white-green (lighted land airport)
Operates sunset to sunrise.

Airport Communications

CTAF/UNICOM: 122.8
BIRMINGHAM APPROACH: 125.45 [0600-2300]
BIRMINGHAM DEPARTURE: 125.45 [0600-2300]
WX AWOS-3PT at GAD (14 nm E): 127.825 (256-442-7094)
WX AWOS-3PT at 8A0 (17 nm N): 119.575 (256-891-8259)

Nearby radio navigation aids

VOR radial/distance  VOR name  Freq  Var
GADr267/14.8GADSDEN VOR/DME112.3002E
TDGr323/29.1TALLADEGA VOR/DME108.8002E
VUZr053/31.6VULCAN VORTAC114.4002E

Airport Services

Parking: tiedowns
Bottled oxygen: NONE
Bulk oxygen: NONE

Runway Information

Runway 6/24

Dimensions: 4203 x 80 ft. / 1281 x 24 m
Surface: asphalt, in fair condition
Weight bearing capacity: 
Single wheel: 20.0
Double wheel: 35.0
Double tandem: 55.0
Runway edge lights: medium intensity
RUNWAY 6  RUNWAY 24
Latitude: 33-58.077035N33-58.476817N
Longitude: 086-23.163130W086-22.483875W
Elevation: 1108.1 ft.1124.8 ft.
Traffic pattern: leftleft
Runway heading: 058 magnetic, 055 true238 magnetic, 235 true
Displaced threshold: no105 ft.
Markings: nonprecision, in good conditionnonprecision, in good condition
Visual slope indicator: 2-light PAPI on left (4.00 degrees glide path)2-light PAPI on left (3.00 degrees glide path)
Touchdown point: yes, no lightsyes, no lights
Obstructions: 91 ft. trees, 1334 ft. from runway, 40 ft. left of centerline, 12:1 slope to clear
RWY 24 APCH SLOPE 30:1 TO DTHR.
none

Airport Ownership and Management from official FAA records

Ownership: Publicly-owned
Owner: CITY OF ONEONTA & BLOUNT CTY.
202 3RD AVE EAST
ONEONTA, AL 35121
Phone 205-274-2141
Manager: EDWARD LOWE
202 3RD AVE EAST
ONEONTA, AL 35121
Phone 205-274-7747

Airport Operational Statistics

Aircraft based on the field: 10
Single engine airplanes: 8
Multi engine airplanes: 2
    
Aircraft operations: avg 53/week *
53% transient general aviation
47% local general aviation
* for 12-month period ending 31 May 2019

Additional Remarks

DEER ON & INVOF ARPT.
FOR CD CTC BIRMINGHAM APCH AT (205) 769-3907.

Instrument Procedures

NOTE: All procedures below are presented as PDF files. If you need a reader for these files, you should download the free Adobe Reader.

NOT FOR NAVIGATION. Please procure official charts for flight.
FAA instrument procedures published for use from 18 June 2020 at 0901Z to 16 July 2020 at 0900Z.

 
IAPs - Instrument Approach Procedures
RNAV (GPS) RWY 06   download (220KB)
RNAV (GPS) RWY 24   download (235KB)
NOTE: Special Take-Off Minimums/Departure Procedures apply   download (408KB)

Other nearby airports with instrument procedures:

KGAD - Northeast Alabama Regional Airport (14 nm E)
8A0 - Albertville Regional Airport-Thomas J Brumlik Field (17 nm N)
KPLR - St Clair County Airport (26 nm S)
8A1 - Guntersville Municipal Airport - Joe Starnes Field (27 nm N)
KASN - Talladega Municipal Airport (29 nm SE)
 
Loc | Ops | Rwys | IFR | FBO | Links
Com | Nav | Svcs | Stats | Notes
Area around 20A (Robbins Field Airport)
 
Road maps at: MapQuest Bing Google
 
Aerial photo
WARNING: Photo may not be current or correct
Aerial photo of 20A (Robbins Field Airport)
Do you have a better or more recent aerial photo of Robbins Field Airport that you would like to share? If so, please send us your photo.

 
Sectional chart

 
Airport distance calculator
Flying to Robbins Field Airport? Find the distance to fly.

From to 20A

Sunrise and sunset
Times for 08-Jul-2020
 Local
(UTC-5)
 Zulu
(UTC)
Morning civil twilight05:1410:14
Sunrise05:4310:43
Sunset19:5900:59
Evening civil twilight20:2701:27

Current date and time
Zulu (UTC)  08-Jul-2020 23:13:08
Local (UTC-5)  08-Jul-2020 18:13:08
 
METAR
KGAD 
16nm E 
082256Z AUTO 24005KT 10SM VCTS RA FEW018 23/22 A2995 RMK AO2 WSHFT 2156 LTG DSNT SE TSB14RAB01 SLP139 P0063 T02280217
K8A0 
17nm N 
082255Z AUTO 21004KT 10SM SCT075 22/21 A2994 RMK AO2 P0001
KPLR 
26nm S 
082235Z AUTO 22005KT 10SM CLR 30/26 A2991 RMK A01
KASN 
29nm SE 
082255Z AUTO 23007KT 10SM CLR 30/24 A2991 RMK AO2 LTG DSNT N E AND S T03040238
KCMD 
30nm NW 
082255Z AUTO 11005KT 10SM SCT010 SCT021 SCT027 23/21 A2996 RMK AO2 LTG DSNT E SE AND NW P0050 T02270205
KBHM 
30nm SW 
082253Z 24013KT 10SM FEW028 SCT037 BKN250 29/22 A2994 RMK AO2 SLP130 T02890222
TAF
KASN 
29nm SE 
082017Z 0820/0918 26008KT P6SM VCSH SCT025 SCT060 TEMPO 0822/0823 6SM -TSRA BKN035CB FM090100 VRB03KT P6SM BKN100 FM090900 VRB03KT 5SM BR SCT007 BKN015 FM091500 27006KT P6SM BKN025 PROB30 0915/0917 4SM TSRA OVC025CB
KBHM 
30nm SW 
081730Z 0818/0918 28008KT P6SM SHRA VCTS SCT020 BKN040CB TEMPO 0818/0819 BKN015CB FM090100 VRB04KT P6SM BKN100 FM090800 VRB03KT P6SM BKN025 FM091000 VRB03KT 5SM BR SCT007 OVC015 FM091300 VRB04KT P6SM BKN012 FM091600 29006KT P6SM SCT025
KANB 
35nm SE 
081730Z 0818/0918 24007KT P6SM SHRA VCTS SCT015 BKN040CB FM090100 VRB03KT P6SM BKN100 FM090900 VRB03KT 5SM BR SCT007 BKN015 FM091500 27006KT P6SM BKN025 PROB30 0915/0917 4SM TSRA OVC025CB
NOTAMs
Click for the latest NOTAMs
NOTAMs are issued by the DoD/FAA and will open in a separate window not controlled by AirNav.

 

 
 

Would you like to see your business listed on this page?

 If your business provides an interesting product or service to pilots, flight crews, aircraft, or users of the Robbins Field Airport, you should consider listing it here.  To start the listing process, click on the button below
 
Add a business
 

Other Pages about Robbins Field Airport

Update a link
 
Copyright © AirNav, LLC. All rights reserved. Privacy Policy  Contact